QPF
0.02 0.03 0.04 0.05 0.04 0.03 0.03 0.02 0.03 0.03 0.03 0.03 0.03 0.04 0.03 0.03 0.04 0.03 0.03 0.03 0.04 0.04 0.04 0.04 0.03 0.03 0.03 0.04 0.05 0.04 0.04 0.04 0.04 0.03 0.03 0.03 0.02 0.04 0.07 0.08 0.06 0.05 0.05
0.03 0.05 0.09 0.09 0.05 0.03 0.02 0.02 0.03 0.03 0.03 0.03 0.04 0.05 0.04 0.03 0.03 0.02 0.02 0.03 0.03 0.03 0.03 0.03 0.03 0.04 0.04 0.04 0.04 0.04 0.03 0.04 0.05 0.04 0.03 0.02 0.03 0.03 0.05 0.07 0.07 0.06 0.04
0.03 0.04 0.04 0.04 0.03 0.03 0.04 0.04 0.04 0.03 0.03 0.03 0.03 0.04 0.04 0.04 0.04 0.03 0.02 0.02 0.02 0.02 0.03 0.03 0.03 0.03 0.03 0.04 0.03 0.02 0.02 0.03 0.04 0.04 0.03 0.02 0.02 0.03 0.04 0.05 0.06 0.06 0.05
0.02 0.02 0.02 0.03 0.04 0.04 0.04 0.04 0.03 0.03 0.03 0.03 0.03 0.04 0.04 0.04 0.03 0.03 0.03 0.03 0.03 0.03 0.04 0.04 0.03 0.03 0.04 0.04 0.03 0.03 0.03 0.03 0.04 0.05 0.04 0.03 0.03 0.03 0.04 0.06 0.06 0.05 0.05
0.04 0.03 0.03 0.05 0.07 0.07 0.06 0.05 0.03 0.02 0.02 0.02 0.02 0.02 0.02 0.02 0.02 0.03 0.04 0.03 0.03 0.02 0.02 0.02 0.02 0.03 0.03 0.03 0.03 0.03 0.03 0.04 0.05 0.05 0.05 0.04 0.04 0.04 0.04 0.05 0.04 0.04 0.04
0.07 0.06 0.05 0.06 0.08 0.10 0.08 0.05 0.03 0.02 0.02 0.01 0.02 0.01 0.01 0.01 0.01 0.01 0.02 0.03 0.02 0.02 0.01 0.01 0.02 0.02 0.02 0.02 0.03 0.04 0.05 0.07 0.07 0.06 0.06 0.05 0.05 0.05 0.06 0.07 0.07 0.07 0.06
0.06 0.07 0.07 0.07 0.07 0.07 0.05 0.03 0.03 0.03 0.03 0.03 0.02 0.02 0.02 0.01 0.01 0.01 0.01 0.02 0.02 0.02 0.01 0.01 0.02 0.01 0.03 0.04 0.05 0.05 0.05 0.07 0.08 0.07 0.07 0.07 0.07 0.07 0.07 0.08 0.10 0.10 0.07
0.06 0.06 0.06 0.07 0.06 0.04 0.04 0.04 0.03 0.02 0.02 0.02 0.01 0.01 0.01 0.01 0.02 0.02 0.02 0.02 0.01 0.01 0.01 0.01 0.01 0.02 0.02 0.04 0.06 0.06 0.06 0.07 0.08 0.07 0.07 0.06 0.05 0.06 0.07 0.07 0.08 0.07 0.05
0.03 0.03 0.03 0.03 0.03 0.03 0.03 0.02 0.02 0.02 0.02 0.02 0.02 0.02 0.02 0.01 0.01 0.01 0.02 0.01 0.01 0.01 0.01 0.01 0.02 0.01 0.02 0.04 0.05 0.05 0.06 0.06 0.06 0.05 0.05 0.04 0.04 0.04 0.05 0.05 0.06 0.06 0.06
0.02 0.02 0.01 0.01 0.02 0.02 0.01 0.01 0.01 0.01 0.01 0.01 0.01 0.01 0.01 0.00 0.01 0.01 0.02 0.01 0.01 0.01 0.02 0.02 0.02 0.02 0.02 0.04 0.04 0.04 0.04 0.05 0.05 0.05 0.04 0.03 0.03 0.03 0.04 0.04 0.04 0.05 0.04
0.02 0.02 0.01 0.01 0.01 0.01 0.01 0.01 0.01 0.01 0.01 0.01 0.01 0.01 0.00 0.00 0.01 0.03 0.03 0.02 0.02 0.02 0.02 0.02 0.01 0.02 0.02 0.03 0.04 0.04 0.05 0.06 0.06 0.05 0.04 0.04 0.04 0.04 0.04 0.04 0.04 0.04 0.04
0.03 0.02 0.02 0.02 0.02 0.02 0.02 0.01 0.01 0.02 0.02 0.01 0.01 0.01 0.01 0.01 0.01 0.02 0.04 0.03 0.03 0.04 0.03 0.03 0.02 0.02 0.03 0.05 0.04 0.05 0.07 0.07 0.06 0.07 0.07 0.05 0.05 0.05 0.04 0.04 0.04 0.04 0.04
0.03 0.02 0.02 0.02 0.03 0.04 0.04 0.04 0.03 0.02 0.02 0.01 0.01 0.01 0.01 0.01 0.01 0.02 0.03 0.04 0.04 0.04 0.04 0.03 0.02 0.03 0.04 0.06 0.05 0.06 0.06 0.05 0.05 0.05 0.06 0.05 0.06 0.06 0.06 0.05 0.05 0.06 0.07
0.02 0.02 0.02 0.02 0.03 0.03 0.04 0.04 0.03 0.02 0.02 0.02 0.01 0.01 0.01 0.01 0.02 0.03 0.04 0.04 0.05 0.05 0.05 0.05 0.05 0.05 0.05 0.06 0.07 0.06 0.05 0.05 0.06 0.05 0.05 0.06 0.06 0.06 0.05 0.06 0.07 0.07 0.07
0.02 0.02 0.02 0.03 0.03 0.03 0.02 0.02 0.02 0.02 0.02 0.02 0.02 0.02 0.03 0.03 0.04 0.05 0.05 0.06 0.06 0.07 0.08 0.09 0.09 0.07 0.06 0.06 0.05 0.06 0.07 0.07 0.07 0.05 0.05 0.06 0.07 0.05 0.04 0.04 0.05 0.05 0.05
0.03 0.03 0.03 0.04 0.04 0.03 0.03 0.03 0.03 0.03 0.03 0.03 0.03 0.03 0.03 0.05 0.07 0.08 0.08 0.09 0.10 0.11 0.13 0.13 0.12 0.10 0.08 0.08 0.07 0.07 0.09 0.11 0.09 0.06 0.05 0.05 0.06 0.04 0.03 0.03 0.04 0.04 0.05
0.04 0.04 0.04 0.04 0.04 0.03 0.03 0.03 0.03 0.04 0.04 0.05 0.05 0.05 0.05 0.05 0.06 0.08 0.08 0.09 0.09 0.10 0.09 0.09 0.10 0.09 0.09 0.09 0.08 0.09 0.09 0.11 0.12 0.10 0.07 0.05 0.04 0.03 0.02 0.02 0.03 0.04 0.04
0.05 0.04 0.04 0.05 0.04 0.03 0.03 0.04 0.05 0.06 0.06 0.06 0.07 0.08 0.08 0.08 0.07 0.06 0.07 0.07 0.06 0.06 0.05 0.06 0.07 0.08 0.08 0.08 0.07 0.07 0.07 0.07 0.09 0.10 0.08 0.05 0.03 0.02 0.02 0.02 0.02 0.02 0.03
0.06 0.04 0.04 0.05 0.07 0.06 0.04 0.05 0.07 0.06 0.07 0.07 0.08 0.12 0.16 0.16 0.14 0.12 0.10 0.09 0.08 0.07 0.07 0.07 0.07 0.08 0.07 0.07 0.08 0.08 0.08 0.08 0.07 0.07 0.07 0.06 0.03 0.02 0.01 0.01 0.01 0.01 0.01
0.08 0.06 0.04 0.04 0.05 0.08 0.08 0.09 0.10 0.09 0.07 0.07 0.09 0.09 0.10 0.14 0.13 0.12 0.13 0.13 0.13 0.11 0.10 0.09 0.10 0.10 0.10 0.10 0.10 0.09 0.09 0.09 0.09 0.08 0.08 0.07 0.06 0.04 0.02 0.01 0.01 0.00 0.00
0.07 0.06 0.05 0.04 0.04 0.06 0.08 0.08 0.08 0.10 0.11 0.11 0.10 0.08 0.09 0.09 0.08 0.08 0.10 0.11 0.11 0.11 0.10 0.10 0.10 0.11 0.11 0.11 0.11 0.11 0.10 0.09 0.09 0.08 0.08 0.07 0.06 0.05 0.03 0.01 0.01 0.00 0.00
0.05 0.05 0.05 0.05 0.05 0.07 0.08 0.08 0.09 0.09 0.09 0.10 0.10 0.12 0.13 0.11 0.08 0.08 0.08 0.09 0.09 0.07 0.07 0.07 0.07 0.07 0.08 0.09 0.09 0.09 0.09 0.08 0.07 0.06 0.06 0.05 0.05 0.04 0.03 0.02 0.01 0.01 0.00
0.05 0.05 0.06 0.06 0.06 0.08 0.10 0.13 0.12 0.09 0.07 0.07 0.10 0.11 0.10 0.10 0.09 0.09 0.09 0.09 0.08 0.06 0.04 0.04 0.04 0.04 0.04 0.04 0.05 0.06 0.06 0.06 0.06 0.06 0.05 0.05 0.04 0.03 0.02 0.02 0.01 0.01 0.01
0.05 0.05 0.05 0.06 0.07 0.08 0.09 0.10 0.09 0.08 0.07 0.07 0.08 0.08 0.08 0.08 0.09 0.09 0.09 0.09 0.07 0.05 0.04 0.03 0.03 0.03 0.04 0.04 0.05 0.05 0.06 0.06 0.06 0.06 0.06 0.06 0.05 0.04 0.03 0.03 0.02 0.02 0.02
0.05 0.06 0.08 0.09 0.09 0.08 0.08 0.09 0.09 0.09 0.07 0.07 0.06 0.07 0.07 0.06 0.06 0.05 0.06 0.06 0.05 0.05 0.03 0.03 0.02 0.02 0.03 0.04 0.04 0.04 0.04 0.05 0.05 0.05 0.04 0.04 0.03 0.03 0.03 0.03 0.03 0.02 0.02
0.07 0.09 0.10 0.10 0.10 0.09 0.10 0.10 0.10 0.09 0.09 0.09 0.08 0.08 0.07 0.05 0.04 0.04 0.04 0.04 0.03 0.03 0.02 0.02 0.01 0.01 0.01 0.01 0.01 0.02 0.02 0.02 0.04 0.05 0.04 0.02 0.02 0.01 0.01 0.01 0.01 0.01 0.01
MSLP
1016.04 1016.31 1016.65 1017.00 1017.33 1017.60 1017.79 1017.89 1017.94 1017.93 1017.91 1017.88 1017.86 1017.87 1017.90 1017.94 1017.99 1018.04 1018.08 1018.10 1018.11 1018.11 1018.10 1018.08 1018.06 1018.04 1018.05 1018.08 1018.14 1018.23 1018.35 1018.47 1018.59 1018.66 1018.68 1018.60 1018.42 1018.14 1017.78 1017.35 1016.90 1016.46 1016.07
1016.71 1016.94 1017.22 1017.52 1017.81 1018.04 1018.22 1018.34 1018.40 1018.42 1018.42 1018.42 1018.44 1018.47 1018.53 1018.60 1018.68 1018.76 1018.84 1018.90 1018.94 1018.96 1018.95 1018.91 1018.86 1018.80 1018.74 1018.71 1018.70 1018.74 1018.81 1018.90 1019.00 1019.08 1019.10 1019.04 1018.88 1018.62 1018.26 1017.84 1017.38 1016.91 1016.49
1017.39 1017.59 1017.82 1018.07 1018.31 1018.51 1018.67 1018.78 1018.86 1018.91 1018.94 1018.98 1019.02 1019.08 1019.16 1019.25 1019.36 1019.47 1019.57 1019.67 1019.74 1019.78 1019.78 1019.75 1019.69 1019.60 1019.51 1019.42 1019.35 1019.32 1019.33 1019.38 1019.45 1019.50 1019.52 1019.47 1019.33 1019.09 1018.76 1018.35 1017.89 1017.42 1016.98
1018.02 1018.20 1018.41 1018.62 1018.82 1019.00 1019.15 1019.27 1019.37 1019.45 1019.52 1019.59 1019.67 1019.75 1019.84 1019.95 1020.06 1020.17 1020.29 1020.40 1020.48 1020.55 1020.57 1020.55 1020.49 1020.39 1020.27 1020.14 1020.02 1019.93 1019.88 1019.88 1019.89 1019.92 1019.92 1019.87 1019.74 1019.53 1019.23 1018.84 1018.40 1017.95 1017.50
1018.53 1018.74 1018.95 1019.15 1019.33 1019.50 1019.65 1019.79 1019.92 1020.05 1020.16 1020.28 1020.38 1020.49 1020.58 1020.68 1020.78 1020.87 1020.97 1021.07 1021.16 1021.22 1021.26 1021.25 1021.19 1021.09 1020.96 1020.80 1020.64 1020.50 1020.39 1020.32 1020.28 1020.26 1020.24 1020.18 1020.07 1019.88 1019.61 1019.27 1018.87 1018.44 1018.01
1018.89 1019.16 1019.39 1019.60 1019.80 1019.98 1020.15 1020.33 1020.51 1020.68 1020.85 1021.01 1021.15 1021.26 1021.36 1021.43 1021.49 1021.54 1021.60 1021.66 1021.72 1021.77 1021.80 1021.80 1021.74 1021.65 1021.50 1021.33 1021.14 1020.96 1020.80 1020.67 1020.58 1020.51 1020.45 1020.38 1020.28 1020.12 1019.89 1019.59 1019.24 1018.86 1018.46
1019.10 1019.44 1019.72 1019.97 1020.19 1020.40 1020.62 1020.84 1021.07 1021.31 1021.53 1021.73 1021.90 1022.02 1022.10 1022.14 1022.15 1022.14 1022.14 1022.14 1022.16 1022.17 1022.18 1022.16 1022.12 1022.02 1021.88 1021.70 1021.49 1021.28 1021.08 1020.90 1020.76 1020.65 1020.56 1020.48 1020.37 1020.23 1020.04 1019.80 1019.51 1019.17 1018.82
1019.16 1019.59 1019.94 1020.24 1020.51 1020.76 1021.02 1021.29 1021.58 1021.86 1022.14 1022.38 1022.57 1022.69 1022.75 1022.75 1022.70 1022.63 1022.56 1022.49 1022.45 1022.42 1022.40 1022.37 1022.32 1022.23 1022.09 1021.92 1021.70 1021.48 1021.25 1021.04 1020.86 1020.72 1020.60 1020.50 1020.39 1020.27 1020.11 1019.91 1019.67 1019.39 1019.09
1019.13 1019.64 1020.06 1020.42 1020.74 1021.03 1021.34 1021.65 1021.99 1022.32 1022.64 1022.91 1023.11 1023.23 1023.27 1023.23 1023.14 1023.00 1022.86 1022.73 1022.63 1022.56 1022.50 1022.46 1022.40 1022.32 1022.20 1022.04 1021.84 1021.61 1021.37 1021.15 1020.95 1020.78 1020.64 1020.52 1020.41 1020.29 1020.16 1019.99 1019.79 1019.56 1019.29
1019.06 1019.64 1020.13 1020.54 1020.90 1021.24 1021.58 1021.93 1022.30 1022.66 1023.00 1023.29 1023.50 1023.62 1023.65 1023.58 1023.45 1023.27 1023.08 1022.90 1022.76 1022.64 1022.56 1022.51 1022.45 1022.38 1022.28 1022.13 1021.95 1021.74 1021.52 1021.29 1021.09 1020.90 1020.75 1020.62 1020.50 1020.38 1020.25 1020.09 1019.91 1019.70 1019.47
1019.00 1019.64 1020.18 1020.63 1021.03 1021.39 1021.76 1022.13 1022.51 1022.89 1023.24 1023.54 1023.75 1023.87 1023.89 1023.81 1023.66 1023.46 1023.25 1023.04 1022.87 1022.74 1022.64 1022.58 1022.52 1022.47 1022.38 1022.26 1022.11 1021.93 1021.73 1021.52 1021.32 1021.13 1020.97 1020.83 1020.69 1020.56 1020.42 1020.26 1020.08 1019.88 1019.65
1018.99 1019.67 1020.24 1020.72 1021.13 1021.52 1021.89 1022.27 1022.65 1023.03 1023.37 1023.67 1023.88 1024.00 1024.02 1023.95 1023.81 1023.61 1023.39 1023.19 1023.01 1022.87 1022.77 1022.70 1022.65 1022.61 1022.54 1022.45 1022.33 1022.18 1022.00 1021.82 1021.64 1021.47 1021.30 1021.15 1021.01 1020.85 1020.69 1020.51 1020.31 1020.09 1019.86
1019.03 1019.72 1020.31 1020.80 1021.23 1021.62 1021.99 1022.36 1022.73 1023.09 1023.43 1023.71 1023.92 1024.04 1024.08 1024.02 1023.90 1023.72 1023.53 1023.34 1023.17 1023.04 1022.94 1022.87 1022.83 1022.78 1022.73 1022.66 1022.57 1022.45 1022.31 1022.16 1022.00 1021.85 1021.69 1021.54 1021.38 1021.21 1021.02 1020.81 1020.58 1020.33 1020.07
1019.11 1019.80 1020.38 1020.88 1021.31 1021.70 1022.06 1022.42 1022.76 1023.10 1023.41 1023.68 1023.88 1024.01 1024.06 1024.03 1023.93 1023.80 1023.63 1023.47 1023.32 1023.20 1023.10 1023.04 1022.99 1022.95 1022.90 1022.84 1022.77 1022.68 1022.57 1022.45 1022.33 1022.20 1022.06 1021.91 1021.75 1021.56 1021.35 1021.11 1020.84 1020.56 1020.28
1019.21 1019.87 1020.44 1020.93 1021.36 1021.74 1022.09 1022.42 1022.75 1023.06 1023.34 1023.58 1023.77 1023.90 1023.96 1023.96 1023.89 1023.79 1023.66 1023.53 1023.40 1023.29 1023.20 1023.13 1023.07 1023.02 1022.97 1022.92 1022.86 1022.78 1022.71 1022.62 1022.53 1022.43 1022.31 1022.18 1022.01 1021.82 1021.60 1021.34 1021.05 1020.75 1020.44
1019.28 1019.91 1020.47 1020.94 1021.36 1021.73 1022.06 1022.37 1022.67 1022.95 1023.20 1023.41 1023.58 1023.71 1023.77 1023.78 1023.75 1023.68 1023.58 1023.47 1023.36 1023.26 1023.16 1023.08 1023.01 1022.95 1022.89 1022.84 1022.78 1022.72 1022.67 1022.61 1022.55 1022.48 1022.38 1022.27 1022.12 1021.93 1021.71 1021.44 1021.15 1020.84 1020.52
1019.30 1019.90 1020.43 1020.90 1021.30 1021.66 1021.98 1022.27 1022.53 1022.77 1022.99 1023.17 1023.32 1023.42 1023.48 1023.50 1023.48 1023.43 1023.36 1023.27 1023.17 1023.07 1022.97 1022.88 1022.80 1022.72 1022.65 1022.59 1022.54 1022.50 1022.46 1022.42 1022.38 1022.34 1022.27 1022.17 1022.04 1021.87 1021.66 1021.41 1021.12 1020.82 1020.52
1019.26 1019.83 1020.34 1020.79 1021.18 1021.53 1021.83 1022.10 1022.33 1022.54 1022.72 1022.86 1022.98 1023.06 1023.11 1023.12 1023.10 1023.06 1023.00 1022.92 1022.83 1022.73 1022.63 1022.54 1022.45 1022.36 1022.29 1022.23 1022.18 1022.15 1022.12 1022.10 1022.08 1022.05 1022.00 1021.92 1021.81 1021.65 1021.46 1021.24 1020.98 1020.71 1020.43
1019.13 1019.68 1020.18 1020.62 1021.01 1021.35 1021.64 1021.88 1022.09 1022.26 1022.40 1022.51 1022.59 1022.64 1022.66 1022.66 1022.64 1022.60 1022.54 1022.46 1022.38 1022.29 1022.20 1022.10 1022.02 1021.94 1021.87 1021.81 1021.77 1021.75 1021.73 1021.72 1021.71 1021.68 1021.64 1021.57 1021.47 1021.33 1021.16 1020.96 1020.74 1020.51 1020.28
1018.93 1019.48 1019.97 1020.41 1020.80 1021.13 1021.40 1021.63 1021.81 1021.95 1022.05 1022.12 1022.17 1022.19 1022.18 1022.16 1022.13 1022.08 1022.02 1021.95 1021.88 1021.80 1021.72 1021.65 1021.58 1021.51 1021.46 1021.42 1021.40 1021.38 1021.37 1021.36 1021.34 1021.32 1021.27 1021.20 1021.10 1020.97 1020.81 1020.64 1020.46 1020.27 1020.09
1018.67 1019.22 1019.72 1020.17 1020.56 1020.88 1021.15 1021.36 1021.52 1021.63 1021.70 1021.74 1021.74 1021.73 1021.70 1021.66 1021.61 1021.55 1021.50 1021.44 1021.38 1021.32 1021.27 1021.22 1021.18 1021.15 1021.12 1021.11 1021.10 1021.09 1021.08 1021.07 1021.04 1021.00 1020.93 1020.84 1020.73 1020.60 1020.46 1020.31 1020.16 1020.02 1019.89
1018.36 1018.92 1019.43 1019.89 1020.29 1020.62 1020.88 1021.08 1021.22 1021.31 1021.34 1021.35 1021.32 1021.28 1021.22 1021.16 1021.10 1021.04 1020.99 1020.95 1020.92 1020.89 1020.87 1020.86 1020.86 1020.87 1020.88 1020.89 1020.90 1020.90 1020.89 1020.86 1020.82 1020.75 1020.66 1020.54 1020.41 1020.28 1020.14 1020.00 1019.88 1019.78 1019.69
1018.01 1018.59 1019.12 1019.59 1020.00 1020.33 1020.59 1020.78 1020.90 1020.96 1020.97 1020.95 1020.89 1020.83 1020.75 1020.68 1020.61 1020.56 1020.52 1020.50 1020.49 1020.51 1020.53 1020.57 1020.61 1020.66 1020.71 1020.75 1020.78 1020.79 1020.77 1020.73 1020.66 1020.56 1020.44 1020.30 1020.15 1020.00 1019.85 1019.73 1019.63 1019.56 1019.52
1017.64 1018.24 1018.79 1019.27 1019.68 1020.01 1020.26 1020.43 1020.54 1020.58 1020.56 1020.51 1020.44 1020.35 1020.26 1020.18 1020.11 1020.07 1020.05 1020.06 1020.10 1020.15 1020.22 1020.31 1020.40 1020.50 1020.58 1020.65 1020.69 1020.71 1020.69 1020.63 1020.54 1020.41 1020.26 1020.09 1019.92 1019.76 1019.62 1019.50 1019.43 1019.39 1019.39
1017.27 1017.88 1018.43 1018.91 1019.32 1019.64 1019.88 1020.03 1020.11 1020.13 1020.09 1020.01 1019.92 1019.82 1019.72 1019.64 1019.59 1019.57 1019.58 1019.62 1019.70 1019.80 1019.93 1020.06 1020.20 1020.34 1020.46 1020.55 1020.61 1020.63 1020.60 1020.53 1020.42 1020.28 1020.11 1019.92 1019.74 1019.57 1019.43 1019.33 1019.28 1019.26 1019.29
1016.90 1017.51 1018.06 1018.53 1018.92 1019.22 1019.44 1019.56 1019.61 1019.60 1019.53 1019.44 1019.32 1019.21 1019.12 1019.05 1019.02 1019.03 1019.08 1019.17 1019.30 1019.45 1019.63 1019.82 1020.00 1020.17 1020.32 1020.44 1020.51 1020.54 1020.51 1020.44 1020.32 1020.16 1019.98 1019.79 1019.60 1019.44 1019.31 1019.22 1019.18 1019.19 1019.24
Thickness
5784 5781 5778 5775 5773 5771 5768 5766 5765 5764 5763 5761 5760 5758 5757 5755 5754 5752 5750 5748 5746 5745 5743 5741 5739 5738 5736 5734 5732 5730 5726 5723 5719 5720 5719 5719 5717 5715 5714 5712 5711 5709 5707
5782 5779 5775 5772 5770 5767 5766 5764 5763 5761 5760 5758 5757 5755 5753 5752 5750 5748 5746 5745 5743 5741 5739 5738 5736 5735 5732 5730 5728 5726 5723 5720 5716 5713 5713 5712 5711 5710 5708 5707 5706 5704 5702
5779 5775 5772 5768 5766 5765 5763 5762 5760 5758 5756 5755 5753 5751 5750 5748 5747 5745 5743 5741 5740 5738 5736 5734 5733 5731 5728 5726 5724 5722 5720 5717 5713 5709 5707 5706 5705 5703 5701 5701 5700 5698 5697
5773 5770 5767 5765 5763 5762 5760 5758 5756 5755 5753 5751 5749 5748 5746 5745 5743 5742 5740 5737 5736 5734 5733 5731 5729 5727 5725 5723 5720 5718 5715 5712 5708 5705 5702 5700 5698 5697 5695 5693 5692 5691 5690
5767 5764 5762 5761 5760 5758 5756 5754 5753 5751 5750 5747 5745 5743 5742 5740 5739 5737 5735 5733 5731 5730 5728 5727 5725 5724 5722 5720 5718 5714 5712 5707 5703 5700 5697 5695 5692 5690 5689 5688 5685 5684 5684
5762 5759 5758 5756 5754 5753 5752 5750 5748 5746 5744 5742 5740 5738 5737 5736 5735 5733 5731 5729 5727 5725 5723 5722 5721 5720 5718 5716 5713 5711 5708 5704 5700 5696 5693 5689 5688 5686 5683 5681 5679 5677 5676
5756 5754 5752 5751 5749 5748 5747 5744 5742 5740 5739 5736 5735 5733 5732 5731 5730 5728 5727 5724 5722 5720 5718 5717 5716 5715 5712 5710 5707 5705 5703 5701 5698 5693 5689 5686 5684 5682 5678 5675 5673 5671 5670
5749 5748 5746 5744 5743 5741 5740 5738 5735 5734 5732 5730 5729 5728 5726 5725 5724 5722 5721 5718 5717 5715 5713 5712 5709 5708 5706 5703 5700 5697 5695 5694 5692 5689 5686 5683 5681 5678 5674 5671 5668 5665 5664
5741 5740 5739 5738 5736 5734 5732 5730 5729 5726 5725 5724 5722 5721 5719 5718 5717 5716 5714 5711 5710 5709 5708 5706 5703 5701 5699 5696 5693 5690 5688 5687 5686 5684 5681 5678 5675 5672 5669 5665 5661 5658 5657
5733 5733 5732 5731 5729 5727 5725 5723 5721 5719 5717 5717 5715 5715 5712 5711 5710 5709 5707 5705 5703 5702 5700 5699 5697 5695 5692 5689 5686 5683 5681 5680 5678 5676 5673 5671 5668 5665 5663 5660 5656 5652 5650
5726 5725 5724 5724 5722 5720 5718 5716 5714 5711 5710 5708 5707 5707 5706 5705 5704 5702 5700 5698 5696 5694 5693 5692 5690 5687 5684 5682 5679 5677 5675 5673 5670 5668 5667 5664 5661 5658 5656 5654 5651 5648 5645
5718 5716 5715 5715 5714 5713 5709 5707 5705 5703 5700 5699 5698 5698 5698 5697 5696 5694 5692 5690 5689 5687 5686 5685 5683 5680 5677 5675 5672 5670 5667 5664 5662 5660 5659 5657 5654 5651 5649 5646 5644 5642 5639
5708 5707 5706 5707 5705 5704 5702 5700 5697 5694 5692 5691 5690 5689 5689 5689 5687 5686 5684 5683 5682 5680 5679 5677 5675 5672 5669 5667 5664 5662 5660 5657 5654 5652 5650 5649 5646 5643 5641 5639 5636 5634 5632
5700 5698 5697 5697 5696 5695 5695 5692 5689 5687 5685 5684 5682 5682 5681 5680 5679 5678 5676 5674 5673 5671 5669 5667 5665 5662 5660 5658 5656 5654 5652 5650 5647 5644 5641 5639 5637 5634 5632 5630 5627 5625 5623
5689 5687 5686 5687 5687 5686 5685 5684 5682 5680 5678 5677 5676 5675 5673 5673 5672 5669 5667 5666 5665 5663 5660 5657 5655 5653 5650 5649 5647 5645 5643 5641 5638 5635 5632 5630 5628 5626 5623 5621 5618 5616 5614
5679 5678 5678 5678 5677 5676 5675 5674 5673 5672 5671 5669 5668 5666 5666 5665 5663 5660 5659 5657 5655 5653 5651 5649 5647 5645 5643 5641 5639 5637 5635 5632 5630 5628 5625 5622 5620 5617 5614 5612 5609 5607 5605
5670 5670 5670 5669 5668 5667 5665 5664 5662 5662 5661 5659 5658 5657 5656 5655 5654 5652 5650 5648 5646 5644 5643 5642 5639 5637 5635 5633 5631 5629 5627 5624 5622 5620 5617 5614 5611 5609 5606 5603 5600 5598 5596
5661 5662 5661 5660 5660 5659 5657 5656 5654 5652 5650 5649 5648 5647 5647 5646 5644 5643 5641 5640 5638 5636 5635 5634 5632 5630 5628 5626 5624 5621 5619 5616 5614 5612 5610 5606 5604 5601 5598 5595 5593 5590 5588
5653 5653 5653 5652 5652 5651 5649 5648 5646 5643 5642 5641 5639 5638 5637 5636 5635 5633 5633 5632 5631 5629 5627 5626 5625 5623 5621 5618 5616 5614 5612 5609 5607 5604 5602 5599 5595 5593 5591 5588 5585 5581 5578
5646 5647 5646 5645 5643 5642 5640 5639 5637 5635 5634 5632 5631 5630 5628 5627 5626 5624 5623 5622 5622 5620 5619 5618 5616 5615 5612 5610 5608 5606 5604 5602 5599 5596 5594 5591 5588 5585 5582 5580 5577 5574 5571
5639 5638 5639 5637 5636 5635 5633 5631 5630 5628 5626 5624 5622 5621 5619 5619 5618 5616 5615 5613 5612 5612 5610 5609 5607 5605 5603 5601 5600 5598 5596 5594 5591 5588 5585 5582 5580 5576 5573 5571 5568 5565 5562
5631 5630 5629 5628 5628 5627 5625 5623 5622 5620 5619 5617 5614 5612 5610 5610 5609 5608 5605 5604 5603 5602 5601 5600 5598 5597 5595 5593 5592 5590 5588 5586 5583 5580 5577 5574 5570 5567 5564 5561 5558 5554 5552
5621 5621 5620 5619 5618 5617 5616 5614 5613 5612 5611 5609 5607 5604 5601 5600 5600 5598 5596 5595 5594 5593 5592 5591 5590 5588 5587 5585 5584 5581 5579 5577 5575 5572 5569 5566 5562 5558 5555 5552 5548 5545 5542
5612 5612 5611 5609 5608 5608 5606 5605 5604 5604 5603 5601 5599 5596 5594 5592 5591 5589 5587 5587 5586 5585 5583 5582 5581 5580 5578 5576 5574 5572 5570 5568 5566 5564 5561 5558 5554 5550 5546 5543 5539 5536 5533
5604 5603 5602 5601 5600 5599 5598 5598 5597 5595 5594 5593 5591 5588 5586 5584 5583 5581 5580 5579 5578 5576 5575 5573 5572 5571 5570 5568 5566 5563 5561 5559 5556 5554 5551 5548 5545 5541 5537 5534 5530 5527 5524
5595 5595 5594 5593 5592 5590 5590 5589 5589 5588 5586 5584 5583 5580 5579 5577 5575 5574 5572 5571 5570 5569 5568 5567 5565 5564 5562 5560 5557 5554 5552 5549 5547 5545 5542 5538 5535 5532 5528 5525 5522 5519 5516